Flag for Angola Weather past 2 weeks in Cabinda, Angola

Now
81 °F

Partly sunny.


Feels Like: 85 °F
Forecast: 76 / 81 °F
Wind: 8 mph from East

Location: Pointe Airport-Noire

Current Time: May 27, 2015 at 11:28:46 AM

Latest Report: May 27, 2015 at 10:00 AM


Visibility: 5 mi

Pressure: 29.95 "Hg

Humidity: 79%

Dew point: 73 °F

Location of CabindaLocation

Historic Weather in Cabinda — Graph

°F

Cabinda temperature yesterday

Maximum temperature yesterday: 84 °F (at 1:00 PM)
Minimum temperature yesterday: 75 °F (at 3:00 AM)
Average temperature yesterday: 79 °F

Past Weeks' High & Low Weather Summary

 TemperatureHumidityPressure
High88 °F (May 13, 12:00 PM)100% (May 17, 7:00 AM)29.98 "Hg (May 17, 7:00 AM)
Low75 °F (May 16, 1:00 AM)22% (May 17, 2:00 AM)29.74 "Hg (May 14, 4:00 PM)
Average81 °F86%29.89 "Hg
* Reported May 12 10:00 AM — May 27 10:00 AM, Cabinda, Weather by CustomWeather, © 2015

Note: Actual official high and low records may vary slightly from our data, if they occured in-between our weather recording intervals... More about our weather records

Advertising

Cabinda weather history for previous 24 hours

 ConditionsComfort  
Time TempWeatherWind HumidityBarometerVisibility
10:00 AM
Wed, May 27
81 °FPartly sunny.8 mph79%29.95 "Hg5 mi
9:00 AM79 °FBroken clouds.8 mph84%29.95 "Hg4 mi
8:00 AM75 °FPassing clouds.7 mph89%29.92 "Hg4 mi
7:00 AM75 °FFog.5 mph89%29.92 "Hg2 mi
6:00 AM75 °FFog.5 mph89%29.89 "Hg3 mi
5:00 AM75 °FPartly cloudy.5 mph94%29.89 "Hg4 mi
4:00 AM75 °FPassing clouds.3 mph94%29.86 "Hg4 mi
3:00 AM75 °FPartly cloudy.3 mph94%29.89 "Hg4 mi
2:00 AM75 °FPassing clouds.3 mph94%29.92 "Hg4 mi
1:00 AM75 °FPassing clouds.5 mph94%29.95 "Hg4 mi
12:00 AM77 °FPassing clouds.3 mph89%29.92 "Hg4 mi
11:00 PM
Tue, May 26
77 °FPassing clouds.6 mph89%29.92 "Hg5 mi
10:00 PM77 °FPassing clouds.6 mph89%29.92 "Hg5 mi
9:00 PM79 °FPassing clouds.7 mph84%29.92 "Hg5 mi
8:00 PM79 °FPassing clouds.8 mph84%29.89 "Hg5 mi
7:00 PM79 °FPassing clouds.9 mph84%29.86 "Hg5 mi
6:00 PM79 °FScattered clouds.10 mph84%29.86 "Hg5 mi
5:00 PM81 °FPartly sunny.10 mph84%29.86 "Hg5 mi
4:00 PM81 °FOvercast.12 mph84%29.86 "Hg5 mi
3:00 PM82 °FPartly sunny.9 mph74%29.86 "Hg5 mi
2:00 PM84 °FScattered clouds.12 mph70%29.89 "Hg5 mi
1:00 PM84 °FScattered clouds.14 mph70%29.92 "Hg5 mi
12:00 PM82 °FScattered clouds.12 mph74%29.92 "HgN/A
11:00 AM82 °FScattered clouds.13 mph74%29.95 "Hg5 mi
Weather by CustomWeather, © 2015

See weather overviewHow to use our weather pages